Flight Information

DEPARTURE
REDDING, CA
Elevation:
504
Runways:
12/30 - 5067x150 - ASPH-G
16/34 - 7003x150 - ASPH-G
ATIS:
124.1
Ground:
121.7
Tower:
REDDING TOWER 119.8
DESTINATION
,
Elevation:
TPA:
1000 (est.)


6837.7 NM68° True-17° Var51° HDG

Flight Plan:
(click to file on line)

1. Type
2. Aircraft Identification
3. Aircraft Type / Special Equipment
4. True Airspeed
kts
5. Departure Airport
(ICAO code)
6. Arriving Airport
(ICAO code)
7. Cruising Altitude
ft
8. Alternate Airport
(ICAO code)
9. Route of Flight
10. Remarks


00:00:00 Departure ATIS: Destination ATIS:

Clearance Limit:
Route:
Altitude: Expect in minutes
Frequency:
Transponder: (7500 Hijack / 7600 Lost Comms / 7700 Emergency)


KRDD 110353Z 30006KT 10SM CLR 20/01 A2989 RMK AO2 SLP120 T02000006
Time: 2021-04-11T03:53:00Z
1618114610
Winds: 300 @ 6 kts
Visibility: 10.0 sm
Clouds (AGL): CLR
Temperature: 20.0 C
Dew Point: 0.6 C
Pressure: 29.890747 in Hgbr


Notes:

Data extracted from FAA Digital Chart Supplement. Effective: 0901Z Thursday, Feb 25, 2021 to 0901Z Thursday, APR 22, 2021
Current ATIS data is provided courtisy of PilotEdge.